Wind_Speed
58 58 59 58 57 57 58 57 58 58 58 57 62 62 63 64 61 61 58 54 52 50 49 45 42 38 35 34 33 33 33 30 29 30 30 28 28 27 21 17 14 13 11 13 15
60 58 58 58 57 57 57 57 58 59 60 61 60 63 61 64 65 65 59 54 56 52 52 47 44 33 41 27 40 35 34 32 31 30 27 28 27 26 21 18 15 14 11 12 16
61 61 60 60 60 59 58 59 59 59 60 63 65 63 64 63 67 66 63 58 59 55 54 50 48 44 44 43 39 35 34 36 31 29 28 29 28 24 23 22 17 14 12 13 18
64 64 64 63 62 62 62 62 61 61 57 63 67 69 66 68 70 67 64 62 59 59 56 54 51 48 43 40 39 36 34 38 33 31 31 30 28 27 25 23 18 17 15 14 16
67 68 67 66 66 67 66 66 65 64 62 60 67 71 71 70 78 69 63 65 63 61 59 57 54 51 46 46 42 39 34 37 37 32 33 32 30 26 26 23 19 19 18 16 16
69 71 71 70 69 68 68 68 68 64 62 64 63 71 74 76 70 72 62 66 65 61 60 59 57 56 57 51 46 37 36 40 39 33 30 33 30 27 28 26 24 23 21 18 17
71 71 71 70 68 68 68 69 67 63 64 67 69 70 73 71 71 67 64 67 67 63 61 60 59 57 55 52 43 42 40 40 33 33 34 33 32 31 33 29 27 26 24 22 19
69 69 68 69 68 69 67 65 62 64 63 64 67 71 73 71 67 63 62 65 68 65 65 63 62 60 57 54 46 43 43 44 38 35 36 35 34 36 33 31 31 29 26 25 24
67 67 66 66 66 65 62 58 61 62 60 60 65 71 72 75 71 63 62 63 69 65 68 65 62 62 60 56 52 47 47 46 41 41 37 39 34 36 35 35 33 33 30 29 27
65 63 64 64 62 59 56 58 59 62 62 63 65 68 77 69 64 61 59 66 68 67 68 68 65 65 62 60 57 52 49 47 42 36 39 32 34 35 36 36 37 35 34 31 29
61 58 56 57 58 57 59 60 59 63 64 68 67 73 74 69 65 63 58 62 69 70 69 70 69 68 63 59 54 54 52 46 39 41 40 38 38 33 37 37 35 40 38 36 32
55 55 55 57 57 58 60 62 60 59 62 63 65 70 72 69 68 63 61 66 74 69 68 71 73 63 60 59 54 55 54 50 41 46 39 38 41 32 37 35 30 37 42 39 38
55 55 56 55 55 59 57 57 57 58 59 62 65 70 73 73 64 60 65 66 70 69 67 64 69 65 63 61 57 57 53 45 48 44 42 42 41 34 28 33 34 33 42 42 41
53 55 54 54 56 56 54 53 53 56 60 64 72 71 71 73 66 54 62 67 64 69 65 63 69 66 64 61 58 59 56 47 49 44 46 46 47 40 29 32 36 32 35 44 41
52 53 52 51 48 50 50 53 53 56 59 65 65 68 72 63 65 50 63 68 71 62 63 67 66 65 65 62 59 59 54 47 48 44 48 46 51 39 35 36 29 27 34 40 44
50 50 51 50 47 48 50 53 55 59 63 65 49 69 65 72 52 57 60 66 66 65 68 69 67 65 63 62 60 57 52 49 48 46 50 46 49 45 40 33 31 31 27 37 45
49 48 46 45 45 48 51 57 61 65 60 57 63 56 49 74 58 52 62 68 72 77 75 73 70 66 65 63 62 60 56 52 50 50 54 49 53 49 38 31 32 34 24 25 33
48 46 45 46 47 51 56 60 62 65 65 32 43 59 67 55 68 56 55 62 75 60 72 71 73 70 66 64 59 59 58 55 56 51 50 50 53 53 37 29 27 39 25 27 29
48 46 44 47 51 56 59 62 65 64 67 68 33 32 65 75 58 59 61 68 72 69 70 72 73 69 68 63 61 63 61 55 52 51 52 53 48 52 37 31 33 35 35 31 30
46 44 44 47 50 56 62 63 64 63 60 58 54 42 49 72 69 64 71 67 64 69 70 72 72 71 67 64 64 63 60 56 55 54 52 50 50 52 43 35 33 32 34 35 35
44 42 42 48 51 56 62 62 66 64 42 54 60 42 48 60 62 63 66 63 64 74 60 70 72 73 68 66 62 62 59 59 57 55 52 49 49 47 40 29 31 32 34 34 35
42 40 45 48 52 56 59 62 70 74 44 47 60 54 44 64 53 54 58 59 62 65 70 70 74 72 71 67 63 64 62 59 55 53 49 50 45 43 41 39 35 35 37 39 41
40 37 43 47 49 49 54 63 70 69 57 45 44 54 48 45 58 60 64 63 55 70 75 71 74 71 70 67 67 65 61 56 55 57 54 54 54 47 48 47 42 39 41 44 45
40 37 40 44 44 45 50 61 65 69 57 46 41 42 43 62 57 59 70 66 67 58 65 71 70 71 69 60 63 62 64 62 59 59 53 54 45 46 48 48 46 43 43 44 49
39 33 30 37 40 41 53 71 75 77 46 48 47 49 45 44 66 62 68 67 68 67 58 62 66 70 70 66 61 56 51 50 53 58 57 49 52 50 49 49 48 48 48 48 49
34 28 26 31 35 44 61 72 70 80 45 46 53 49 40 34 34 51 59 61 63 67 63 62 65 62 66 66 63 60 55 52 51 54 57 54 53 49 48 53 52 57 57 53 49
28 29 28 30 37 48 63 63 70 66 50 49 54 51 44 34 42 42 46 57 58 55 57 55 57 58 59 63 63 61 57 54 48 45 43 48 43 41 52 52 55 56 53 53 56
Wind_Direction
233 232 232 233 234 233 231 231 233 231 230 231 234 238 237 233 229 223 223 223 223 224 223 223 228 232 229 219 222 227 222 226 225 228 236 232 226 231 234 234 238 244 243 227 216
237 237 235 235 235 236 237 235 231 233 232 230 232 235 239 237 232 224 225 222 223 222 224 221 225 232 226 224 221 223 224 226 225 227 238 230 224 232 234 233 234 242 244 232 219
238 238 238 237 237 238 240 240 239 235 233 233 231 234 237 237 236 225 227 224 222 221 224 220 221 219 227 226 225 230 233 228 224 225 229 221 222 228 232 230 227 235 236 234 221
238 238 238 238 238 239 240 243 242 241 235 233 233 233 234 236 238 230 228 226 222 222 223 221 219 220 226 228 226 227 231 228 226 222 224 220 226 225 228 235 227 230 230 230 224
236 237 236 236 237 239 241 243 244 243 238 233 232 233 233 234 233 233 227 230 227 222 222 223 220 217 223 235 231 229 230 231 222 219 224 224 224 225 227 232 233 236 235 229 227
237 235 237 237 238 240 243 242 245 243 235 231 229 232 233 234 231 237 228 226 230 225 224 223 222 222 225 230 229 224 229 234 222 219 224 229 224 223 227 229 228 231 236 233 229
239 239 238 240 240 242 244 243 243 239 232 227 227 229 231 230 231 231 231 225 227 226 225 223 223 226 228 231 230 227 230 237 224 218 220 227 225 224 226 225 229 229 230 232 226
238 239 240 241 242 243 243 241 237 233 231 228 228 226 226 226 228 226 227 222 223 225 224 223 223 224 228 227 230 229 229 231 234 237 228 229 222 230 229 228 227 231 229 232 227
239 240 242 243 244 242 238 232 230 230 227 224 224 224 219 223 225 223 223 217 221 222 224 224 223 225 226 226 227 227 228 231 232 234 241 230 227 230 234 230 229 232 233 233 234
240 241 241 241 238 232 226 226 225 225 221 219 218 221 219 218 219 218 216 214 218 219 222 223 223 223 225 225 225 226 230 231 232 232 238 238 237 234 234 237 230 231 233 234 237
234 232 231 229 224 222 221 221 220 219 221 221 216 218 216 211 216 216 215 214 214 217 220 222 223 223 224 226 227 229 231 235 234 239 237 240 242 239 235 232 235 228 230 232 234
219 218 219 218 219 218 219 218 221 224 222 218 212 212 213 213 216 215 213 210 213 214 218 222 225 223 225 227 227 231 232 233 234 235 235 239 239 240 232 229 239 237 229 231 233
215 215 218 219 218 218 218 217 217 217 218 216 213 211 213 213 211 211 212 212 212 214 219 226 227 222 223 225 225 227 230 227 234 233 238 237 236 237 243 236 237 237 234 229 235
212 213 215 215 216 216 216 214 210 214 217 210 209 209 210 215 216 218 214 211 206 214 215 222 224 222 223 224 225 228 227 227 232 230 236 238 238 236 238 243 238 241 242 239 236
209 210 212 216 219 219 218 213 209 211 217 209 209 210 209 216 213 211 209 213 214 210 214 219 223 222 222 223 223 226 226 224 228 228 234 236 246 228 238 243 252 260 251 243 243
207 207 210 214 213 210 209 208 208 210 213 209 211 211 215 209 207 215 216 211 208 211 208 215 220 220 221 220 222 225 224 225 228 230 233 235 242 233 232 239 253 258 248 246 242
206 207 206 207 208 207 204 203 206 208 209 212 210 211 204 217 199 206 214 212 210 210 209 213 215 218 218 218 219 221 220 224 227 228 235 233 238 238 234 242 249 255 258 256 243
199 199 199 202 203 203 203 204 209 205 202 192 214 215 216 209 215 212 218 210 211 211 214 214 212 215 217 218 221 222 225 224 227 229 234 239 239 243 241 243 243 243 257 260 261
196 199 202 203 204 204 204 208 209 203 202 206 211 224 219 219 216 219 216 217 214 213 212 217 214 214 215 218 218 221 226 227 230 231 233 240 242 249 241 241 240 245 255 251 251
195 202 206 206 206 208 210 209 206 202 201 208 215 226 214 222 214 214 215 216 215 213 216 216 215 214 214 214 217 221 225 226 229 231 232 236 242 246 250 243 242 244 245 252 256
198 205 208 209 211 214 214 209 202 192 190 207 204 209 220 214 216 219 215 215 217 211 213 217 212 216 218 216 216 223 223 224 224 228 232 235 240 245 250 241 245 244 248 253 255
203 208 208 213 215 215 212 204 198 196 196 192 210 210 214 217 220 206 208 214 218 218 213 217 216 219 219 220 219 222 220 230 231 234 235 240 245 253 258 252 239 243 241 243 245
206 211 213 213 217 218 212 205 205 204 201 201 204 213 208 203 210 215 213 213 212 212 215 218 215 216 221 222 228 225 221 227 231 233 232 237 245 244 252 253 251 241 242 241 243
207 212 212 214 218 215 209 203 201 201 204 188 196 205 207 213 220 213 213 215 216 213 218 220 220 221 220 222 225 223 222 229 238 237 234 236 237 245 245 250 251 251 242 242 240
212 218 220 222 218 210 201 195 200 202 188 191 207 213 215 212 215 214 211 214 217 216 219 222 223 222 223 228 231 235 240 244 248 235 244 231 233 240 251 250 251 257 257 250 245
213 216 220 213 211 207 203 207 207 203 196 185 197 211 214 221 207 201 209 218 221 221 229 224 224 229 230 232 234 235 239 244 243 238 245 235 233 246 253 252 255 259 260 257 254
218 218 215 208 207 210 204 208 209 200 185 191 196 198 210 198 203 213 219 222 219 219 214 220 222 228 229 233 236 237 238 241 247 249 250 247 240 257 249 254 255 257 261 263 261
Height
5643 5651 5657 5664 5672 5678 5685 5692 5699 5707 5714 5720 5726 5731 5739 5749 5760 5767 5775 5784 5790 5793 5799 5803 5809 5814 5818 5822 5825 5828 5833 5838 5839 5841 5841 5844 5847 5850 5851 5853 5854 5856 5857 5859 5860
5629 5636 5644 5652 5660 5666 5673 5680 5689 5696 5704 5711 5716 5723 5729 5739 5748 5760 5770 5776 5781 5787 5792 5799 5804 5809 5813 5816 5821 5823 5829 5832 5834 5836 5840 5842 5845 5848 5850 5851 5853 5855 5856 5858 5860
5615 5623 5631 5639 5647 5654 5660 5668 5676 5685 5692 5699 5706 5713 5719 5727 5734 5753 5762 5768 5774 5781 5785 5793 5797 5803 5806 5810 5815 5820 5826 5827 5831 5832 5837 5839 5842 5845 5847 5847 5850 5853 5854 5856 5858
5601 5610 5618 5626 5633 5641 5648 5655 5664 5673 5681 5689 5695 5701 5709 5714 5725 5741 5754 5760 5766 5773 5779 5786 5792 5796 5800 5806 5812 5815 5818 5822 5826 5829 5833 5836 5840 5841 5842 5846 5848 5850 5852 5853 5856
5588 5596 5604 5613 5621 5629 5636 5643 5651 5660 5669 5678 5684 5691 5696 5704 5720 5731 5747 5751 5758 5766 5774 5780 5786 5791 5795 5802 5807 5811 5814 5816 5819 5824 5827 5832 5836 5838 5839 5844 5846 5848 5850 5851 5854
5575 5583 5591 5600 5608 5617 5625 5631 5638 5647 5657 5665 5672 5679 5684 5694 5712 5717 5736 5742 5751 5760 5767 5773 5779 5783 5788 5794 5800 5808 5807 5811 5814 5818 5824 5828 5831 5834 5834 5839 5841 5843 5847 5849 5851
5562 5571 5578 5587 5596 5603 5612 5619 5625 5632 5643 5651 5659 5667 5672 5694 5699 5708 5723 5734 5740 5749 5756 5763 5770 5775 5782 5788 5796 5800 5804 5807 5810 5813 5818 5822 5826 5828 5829 5834 5837 5838 5842 5845 5847
5550 5558 5566 5575 5584 5592 5600 5607 5613 5619 5627 5637 5646 5655 5662 5675 5685 5701 5711 5724 5730 5738 5745 5751 5758 5765 5774 5781 5789 5795 5799 5800 5804 5808 5813 5815 5821 5823 5826 5830 5832 5835 5837 5841 5842
5536 5545 5554 5563 5571 5579 5587 5594 5600 5606 5615 5625 5633 5642 5651 5662 5674 5690 5700 5713 5719 5727 5735 5743 5749 5756 5765 5772 5781 5786 5791 5794 5799 5804 5806 5809 5817 5817 5822 5826 5827 5830 5833 5836 5839
5522 5532 5541 5551 5559 5567 5574 5580 5587 5594 5602 5611 5621 5631 5637 5657 5671 5679 5687 5697 5709 5716 5725 5732 5740 5748 5756 5764 5773 5781 5784 5788 5794 5801 5800 5803 5810 5812 5816 5819 5821 5825 5829 5832 5836
5509 5519 5528 5538 5546 5553 5560 5566 5575 5582 5589 5600 5615 5619 5632 5651 5655 5668 5678 5688 5695 5702 5712 5722 5730 5740 5752 5760 5768 5773 5777 5783 5791 5791 5794 5799 5802 5806 5810 5813 5815 5818 5822 5826 5831
5497 5506 5516 5526 5534 5541 5549 5559 5570 5579 5585 5594 5604 5614 5625 5638 5648 5659 5669 5674 5680 5695 5706 5711 5722 5740 5745 5752 5760 5764 5771 5778 5784 5783 5789 5792 5797 5801 5803 5808 5811 5814 5816 5822 5824
5486 5496 5506 5515 5523 5531 5542 5554 5561 5569 5576 5585 5599 5609 5618 5629 5638 5648 5659 5667 5677 5687 5696 5711 5725 5728 5734 5742 5752 5756 5763 5772 5776 5780 5781 5786 5791 5797 5801 5802 5805 5807 5811 5814 5817
5477 5487 5496 5504 5513 5524 5534 5543 5553 5561 5564 5574 5581 5592 5603 5619 5623 5639 5651 5661 5666 5677 5693 5701 5704 5718 5726 5735 5746 5749 5757 5766 5766 5775 5775 5780 5781 5790 5797 5797 5800 5804 5806 5810 5813
5468 5478 5487 5498 5508 5517 5530 5536 5545 5549 5552 5566 5573 5588 5602 5607 5618 5627 5641 5648 5655 5670 5680 5694 5698 5709 5717 5730 5736 5742 5751 5760 5760 5766 5768 5774 5773 5789 5791 5793 5799 5801 5802 5805 5808
5460 5470 5477 5487 5499 5508 5517 5527 5533 5539 5540 5554 5567 5577 5588 5599 5610 5623 5630 5640 5655 5662 5672 5677 5689 5699 5712 5720 5727 5735 5746 5751 5754 5758 5760 5769 5769 5779 5785 5793 5793 5794 5794 5796 5799
5453 5463 5472 5482 5491 5499 5507 5513 5517 5520 5539 5552 5560 5570 5583 5592 5599 5610 5620 5628 5637 5644 5653 5665 5677 5690 5700 5708 5714 5724 5734 5740 5744 5748 5751 5759 5759 5769 5780 5785 5787 5789 5790 5791 5792
5447 5456 5465 5473 5481 5488 5495 5502 5503 5518 5531 5543 5558 5569 5574 5581 5589 5601 5611 5618 5629 5643 5654 5658 5666 5677 5690 5701 5715 5720 5724 5732 5735 5741 5747 5750 5753 5757 5774 5779 5781 5783 5785 5787 5789
5440 5449 5458 5466 5473 5479 5486 5489 5497 5515 5528 5535 5547 5555 5563 5571 5584 5592 5601 5614 5625 5633 5644 5653 5662 5672 5681 5692 5704 5707 5714 5726 5731 5736 5739 5743 5754 5752 5767 5772 5775 5776 5779 5781 5782
5434 5443 5451 5460 5467 5472 5476 5482 5495 5508 5522 5530 5538 5550 5554 5564 5576 5586 5595 5608 5622 5632 5640 5648 5658 5663 5672 5682 5690 5700 5709 5717 5722 5727 5731 5737 5741 5745 5754 5764 5769 5771 5773 5774 5776
5431 5439 5447 5453 5459 5462 5467 5481 5495 5508 5518 5528 5540 5543 5552 5560 5573 5579 5593 5607 5616 5625 5632 5640 5649 5656 5664 5670 5685 5691 5698 5705 5712 5717 5722 5729 5734 5739 5745 5756 5761 5763 5765 5767 5769
5427 5434 5439 5445 5450 5456 5466 5479 5489 5498 5506 5522 5531 5532 5548 5562 5567 5576 5587 5602 5611 5617 5625 5630 5636 5647 5658 5668 5677 5682 5689 5697 5703 5711 5717 5722 5732 5736 5739 5745 5752 5753 5756 5757 5759
5423 5428 5433 5438 5445 5454 5467 5473 5482 5493 5502 5515 5524 5533 5541 5550 5559 5571 5583 5590 5598 5606 5612 5623 5631 5640 5647 5657 5661 5671 5683 5689 5692 5697 5707 5712 5725 5730 5729 5732 5738 5744 5746 5749 5750
5418 5423 5428 5434 5444 5451 5460 5470 5479 5488 5495 5504 5514 5523 5533 5543 5553 5563 5571 5584 5595 5604 5612 5618 5627 5635 5643 5656 5663 5668 5673 5678 5681 5688 5705 5706 5719 5718 5721 5721 5723 5728 5734 5736 5738
5415 5420 5427 5433 5441 5449 5455 5462 5469 5477 5487 5497 5509 5518 5526 5535 5543 5553 5565 5577 5584 5595 5602 5612 5619 5627 5635 5643 5651 5659 5664 5669 5672 5688 5683 5703 5704 5712 5707 5711 5714 5717 5719 5722 5727
5413 5418 5423 5431 5437 5442 5448 5455 5465 5472 5483 5494 5506 5516 5524 5533 5546 5560 5568 5574 5581 5588 5596 5605 5613 5621 5628 5635 5641 5647 5653 5659 5668 5679 5676 5692 5694 5697 5699 5700 5704 5701 5702 5709 5716
5410 5415 5420 5426 5432 5436 5447 5458 5464 5473 5482 5494 5505 5512 5522 5531 5540 5550 5560 5569 5578 5586 5594 5599 5607 5616 5622 5626 5631 5637 5649 5656 5665 5667 5676 5677 5694 5685 5687 5690 5690 5693 5698 5702 5702